Flag for Afghanistan Weather past 2 weeks in Mazari Sharif, Afghanistan

Now
81 °F

Passing clouds.


Feels Like: 79 °F
Forecast: 53 / 92 °F
Wind: 3 mph from West

Location: Termez Airport

Current Time: Sep 20, 2014 at 5:32:46 PM

Latest Report: Sep 20, 2014 at 4:30 PM


Visibility: N/A

Pressure: 29.95 "Hg

Humidity: 23%

Dew point: 39 °F

Location of Mazari SharifLocation

Historic Weather in Mazari Sharif — Graph

°F

Mazari Sharif temperature yesterday

Maximum temperature yesterday: 86 °F (at 1:30 PM)
Minimum temperature yesterday: 66 °F (at 5:00 AM)
Average temperature yesterday: 75 °F

Past Weeks' High & Low Weather Summary

 TemperatureHumidityPressure
High104 °F (Sep 17, 3:30 PM)72% (Sep 8, 5:30 AM)30.15 "Hg (Sep 8, 5:30 AM)
Low52 °F (Sep 14, 5:00 AM)6% (Sep 14, 3:00 PM)29.59 "Hg (Sep 17, 2:00 PM)
Average76 °F32%29.85 "Hg
* Reported Sep 5 3:30 PM — Sep 20 4:00 PM, Mazari Sharif, Weather by CustomWeather, © 2014

Note: Actual official high and low records may vary slightly from our data, if they occured in-between our weather recording intervals... More about our weather records

Advertising

Mazari Sharif weather history for previous 24 hours

 ConditionsComfort  
Time TempWeatherWind HumidityBarometerVisibility
4:00 PM
Sep 20
82 °FSunny.1 mph20%29.95 "Hg10 mi
3:30 PM82 °FPassing clouds.3 mph23%29.95 "HgN/A
3:00 PM82 °FSunny.1 mph19%29.98 "Hg10 mi
2:30 PM81 °FPassing clouds.3 mph24%29.98 "HgN/A
2:00 PM81 °FPassing clouds.3 mph21%30.01 "HgN/A
1:30 PM79 °FPassing clouds.3 mph21%30.01 "HgN/A
1:00 PM79 °FPassing clouds.3 mph24%30.04 "HgN/A
12:30 PM79 °FPassing clouds.3 mph23%30.04 "HgN/A
12:00 PM77 °FPassing clouds.3 mph24%30.04 "HgN/A
11:30 AM75 °FSunny.1 mph25%30.07 "Hg10 mi
11:00 AM75 °FSunny.1 mph25%30.07 "Hg10 mi
10:30 AM72 °FSunny.1 mph25%30.09 "Hg10 mi
10:00 AM72 °FSunny.1 mph25%30.09 "Hg10 mi
9:30 AM68 °FSunny.1 mph28%30.09 "Hg10 mi
9:00 AM66 °FSunny.1 mph30%30.12 "Hg10 mi
8:30 AM64 °FPassing clouds.3 mph30%30.09 "HgN/A
8:00 AM63 °FSunny.3 mph32%30.09 "Hg10 mi
7:30 AM59 °FSunny.3 mph36%30.09 "Hg10 mi
7:00 AM57 °FSunny.3 mph41%30.09 "Hg10 mi
6:30 AM54 °FSunny.6 mph47%30.09 "Hg10 mi
5:30 AM55 °FClear.3 mph41%30.07 "Hg10 mi
4:30 AM55 °FClear.1 mph44%30.04 "Hg10 mi
3:30 AM57 °FPassing clouds.3 mph44%30.04 "HgN/A
2:30 AM57 °FClear.6 mph39%30.04 "Hg10 mi
1:30 AM63 °FClear.3 mph30%30.04 "Hg10 mi
12:30 AM66 °FClear.1 mph24%30.04 "Hg10 mi
11:30 PM
Sep 19
66 °FClear.6 mph26%30.04 "Hg10 mi
10:30 PM68 °FClear.6 mph21%30.04 "Hg10 mi
10:00 PM70 °FClear.6 mph20%30.04 "Hg10 mi
9:30 PM72 °FPassing clouds.10 mph16%30.04 "HgN/A
9:00 PM73 °FClear.8 mph16%30.04 "Hg10 mi
8:30 PM73 °FClear.10 mph15%30.04 "Hg10 mi
8:00 PM75 °FClear.8 mph14%30.04 "Hg6 mi
7:30 PM75 °FClear.8 mph15%30.04 "Hg6 mi
7:00 PM75 °FClear.8 mph15%30.04 "Hg5 mi
6:30 PM73 °FClear.8 mph17%30.04 "Hg4 mi
6:00 PM73 °FClear.6 mph22%30.01 "Hg6 mi
5:30 PM77 °FClear.6 mph21%30.04 "Hg6 mi
5:00 PM82 °FClear.8 mph17%30.04 "Hg6 mi
Weather by CustomWeather, © 2014

See weather overviewHow to use our weather pages